Year,Month,Day,Hour,Minute,Value (Times are PST for temperature in C)
2007,09,19,00,00,10.60
2007,09,19,00,01,10.60
2007,09,19,00,02,10.60
2007,09,19,00,03,10.60
2007,09,19,00,04,10.60
2007,09,19,00,05,10.60
2007,09,19,00,06,10.60
2007,09,19,00,07,10.60
2007,09,19,00,08,10.60
2007,09,19,00,09,10.60
2007,09,19,00,10,10.50
2007,09,19,00,11,10.40
2007,09,19,00,12,10.40
2007,09,19,00,13,10.40
2007,09,19,00,14,10.40
2007,09,19,00,15,10.40
2007,09,19,00,16,10.40
2007,09,19,00,17,10.40
2007,09,19,00,18,10.30
2007,09,19,00,19,10.30
2007,09,19,00,20,10.30
2007,09,19,00,21,10.30
2007,09,19,00,22,10.30
2007,09,19,00,23,10.30
2007,09,19,00,24,10.30
2007,09,19,00,25,10.30
2007,09,19,00,26,10.30
2007,09,19,00,27,10.30
2007,09,19,00,28,10.30
2007,09,19,00,29,10.30
2007,09,19,00,30,10.30
2007,09,19,00,31,10.30
2007,09,19,00,32,10.30
2007,09,19,00,33,10.30
2007,09,19,00,34,10.30
2007,09,19,00,35,10.30
2007,09,19,00,36,10.30
2007,09,19,00,37,10.30
2007,09,19,00,38,10.30
2007,09,19,00,39,10.30
2007,09,19,00,40,10.30
2007,09,19,00,41,10.30
2007,09,19,00,42,10.20
2007,09,19,00,43,10.20
2007,09,19,00,44,10.20
2007,09,19,00,45,10.20
2007,09,19,00,46,10.20
2007,09,19,00,47,10.20
2007,09,19,00,48,10.20
2007,09,19,00,49,10.10
2007,09,19,00,50,10.10
2007,09,19,00,51,10.10
2007,09,19,00,52,10.10
2007,09,19,00,53,10.10
2007,09,19,00,54,10.10
2007,09,19,00,55,10.10
2007,09,19,00,56,10.10
2007,09,19,00,57,10.10
2007,09,19,00,58,10.10
2007,09,19,00,59,10.10
2007,09,19,01,00,10.10
2007,09,19,01,01,10.10
2007,09,19,01,02,10.10
2007,09,19,01,03,10.10
2007,09,19,01,04,10.10
2007,09,19,01,05,10.10
2007,09,19,01,06,10.10
2007,09,19,01,07,10.10
2007,09,19,01,08,10.10
2007,09,19,01,09,10.10
2007,09,19,01,10,10.10
2007,09,19,01,11,10.20
2007,09,19,01,12,10.20
2007,09,19,01,13,10.20
2007,09,19,01,14,10.20
2007,09,19,01,15,10.20
2007,09,19,01,16,10.20
2007,09,19,01,17,10.20
2007,09,19,01,18,10.20
2007,09,19,01,19,10.20
2007,09,19,01,20,10.20
2007,09,19,01,21,10.20
2007,09,19,01,22,10.30
2007,09,19,01,23,10.30
2007,09,19,01,24,10.30
2007,09,19,01,25,10.30
2007,09,19,01,26,10.30
2007,09,19,01,27,10.30
2007,09,19,01,28,10.30
2007,09,19,01,29,10.40
2007,09,19,01,30,10.40
2007,09,19,01,31,10.30
2007,09,19,01,32,10.30
2007,09,19,01,33,10.30
2007,09,19,01,34,10.30
2007,09,19,01,35,10.30
2007,09,19,01,36,10.30
2007,09,19,01,37,10.30
2007,09,19,01,38,10.40
2007,09,19,01,39,10.40
2007,09,19,01,40,10.40
2007,09,19,01,41,10.40
2007,09,19,01,42,10.40
2007,09,19,01,43,10.40
2007,09,19,01,44,10.40
2007,09,19,01,45,10.40
2007,09,19,01,46,10.30
2007,09,19,01,47,10.30
2007,09,19,01,48,10.30
2007,09,19,01,49,10.30
2007,09,19,01,50,10.30
2007,09,19,01,51,10.30
2007,09,19,01,52,10.30
2007,09,19,01,53,10.30
2007,09,19,01,54,10.30
2007,09,19,01,55,10.30
2007,09,19,01,56,10.30
2007,09,19,01,57,10.30
2007,09,19,01,58,10.30
2007,09,19,01,59,10.30
2007,09,19,02,00,10.30
2007,09,19,02,01,10.20
2007,09,19,02,02,10.20
2007,09,19,02,03,10.20
2007,09,19,02,04,10.20
2007,09,19,02,05,10.20
2007,09,19,02,06,10.20
2007,09,19,02,07,10.10
2007,09,19,02,08,10.10
2007,09,19,02,09,10.10
2007,09,19,02,10,10.10
2007,09,19,02,11,10.10
2007,09,19,02,12,10.10
2007,09,19,02,13,10.10
2007,09,19,02,14,10.10
2007,09,19,02,15,10.10
2007,09,19,02,16,10.10
2007,09,19,02,17,10.10
2007,09,19,02,18,10.00
2007,09,19,02,19,9.90
2007,09,19,02,20,9.90
2007,09,19,02,21,9.90
2007,09,19,02,22,9.90
2007,09,19,02,23,9.90
2007,09,19,02,24,9.90
2007,09,19,02,25,9.90
2007,09,19,02,26,9.80
2007,09,19,02,27,9.80
2007,09,19,02,28,9.80
2007,09,19,02,29,9.80
2007,09,19,02,30,9.70
2007,09,19,02,31,9.70
2007,09,19,02,32,9.70
2007,09,19,02,33,9.70
2007,09,19,02,34,9.70
2007,09,19,02,35,9.70
2007,09,19,02,36,9.70
2007,09,19,02,37,9.60
2007,09,19,02,38,9.60
2007,09,19,02,39,9.60
2007,09,19,02,40,9.50
2007,09,19,02,41,9.50
2007,09,19,02,42,9.50
2007,09,19,02,43,9.40
2007,09,19,02,44,9.40
2007,09,19,02,45,9.40
2007,09,19,02,46,9.40
2007,09,19,02,47,9.30
2007,09,19,02,48,9.30
2007,09,19,02,49,9.30
2007,09,19,02,50,9.20
2007,09,19,02,51,9.20
2007,09,19,02,52,9.20
2007,09,19,02,53,9.20
2007,09,19,02,54,9.10
2007,09,19,02,55,9.10
2007,09,19,02,56,9.10
2007,09,19,02,57,9.00
2007,09,19,02,58,9.00
2007,09,19,02,59,9.00
2007,09,19,03,00,9.00
2007,09,19,03,01,9.00
2007,09,19,03,02,8.90
2007,09,19,03,03,8.90
2007,09,19,03,04,8.90
2007,09,19,03,05,8.80
2007,09,19,03,06,8.80
2007,09,19,03,07,8.80
2007,09,19,03,08,8.70
2007,09,19,03,09,8.70
2007,09,19,03,10,8.70
2007,09,19,03,11,8.70
2007,09,19,03,12,8.70
2007,09,19,03,13,8.70
2007,09,19,03,14,8.70
2007,09,19,03,15,8.70
2007,09,19,03,16,8.70
2007,09,19,03,17,8.70
2007,09,19,03,18,8.70
2007,09,19,03,19,8.70
2007,09,19,03,20,8.70
2007,09,19,03,21,8.60
2007,09,19,03,22,8.60
2007,09,19,03,23,8.60
2007,09,19,03,24,8.60
2007,09,19,03,25,8.60
2007,09,19,03,26,8.60
2007,09,19,03,27,8.60
2007,09,19,03,28,8.50
2007,09,19,03,29,8.50
2007,09,19,03,30,8.50
2007,09,19,03,31,8.50
2007,09,19,03,32,8.50
2007,09,19,03,33,8.50
2007,09,19,03,34,8.50
2007,09,19,03,35,8.50
2007,09,19,03,36,8.40
2007,09,19,03,37,8.40
2007,09,19,03,38,8.40
2007,09,19,03,39,8.40
2007,09,19,03,40,8.40
2007,09,19,03,41,8.40
2007,09,19,03,42,8.40
2007,09,19,03,43,8.40
2007,09,19,03,44,8.40
2007,09,19,03,45,8.40
2007,09,19,03,46,8.40
2007,09,19,03,47,8.40
2007,09,19,03,48,8.40
2007,09,19,03,49,8.40
2007,09,19,03,50,8.30
2007,09,19,03,51,8.30
2007,09,19,03,52,8.30
2007,09,19,03,53,8.30
2007,09,19,03,54,8.30
2007,09,19,03,55,8.30
2007,09,19,03,56,8.30
2007,09,19,03,57,8.30
2007,09,19,03,58,8.30
2007,09,19,03,59,8.30
2007,09,19,04,00,8.20
2007,09,19,04,01,8.20
2007,09,19,04,02,8.20
2007,09,19,04,03,8.20
2007,09,19,04,04,8.20
2007,09,19,04,05,8.20
2007,09,19,04,06,8.20
2007,09,19,04,07,8.20
2007,09,19,04,08,8.20
2007,09,19,04,09,8.20
2007,09,19,04,10,8.10
2007,09,19,04,11,8.20
2007,09,19,04,12,8.20
2007,09,19,04,13,8.20
2007,09,19,04,14,8.20
2007,09,19,04,15,8.20
2007,09,19,04,16,8.20
2007,09,19,04,17,8.20
2007,09,19,04,18,8.20
2007,09,19,04,19,8.10
2007,09,19,04,20,8.10
2007,09,19,04,21,8.00
2007,09,19,04,22,8.00
2007,09,19,04,23,8.00
2007,09,19,04,24,7.90
2007,09,19,04,25,7.90
2007,09,19,04,26,7.90
2007,09,19,04,27,7.90
2007,09,19,04,28,7.80
2007,09,19,04,29,7.80
2007,09,19,04,30,7.80
2007,09,19,04,31,7.80
2007,09,19,04,32,7.80
2007,09,19,04,33,7.80
2007,09,19,04,34,7.70
2007,09,19,04,35,7.70
2007,09,19,04,36,7.70
2007,09,19,04,37,7.70
2007,09,19,04,38,7.70
2007,09,19,04,39,7.70
2007,09,19,04,40,7.70
2007,09,19,04,41,7.70
2007,09,19,04,42,7.70
2007,09,19,04,43,7.70
2007,09,19,04,44,7.70
2007,09,19,04,45,7.70
2007,09,19,04,46,7.70
2007,09,19,04,47,7.70
2007,09,19,04,48,7.60
2007,09,19,04,49,7.60
2007,09,19,04,50,7.60
2007,09,19,04,51,7.60
2007,09,19,04,52,7.50
2007,09,19,04,53,7.50
2007,09,19,04,54,7.50
2007,09,19,04,55,7.50
2007,09,19,04,56,7.40
2007,09,19,04,57,7.40
2007,09,19,04,58,7.40
2007,09,19,04,59,7.40
2007,09,19,05,00,7.40
2007,09,19,05,01,7.40
2007,09,19,05,02,7.40
2007,09,19,05,03,7.40
2007,09,19,05,04,7.40
2007,09,19,05,05,7.40
2007,09,19,05,06,7.40
2007,09,19,05,07,7.40
2007,09,19,05,08,7.40
2007,09,19,05,09,7.40
2007,09,19,05,10,7.40
2007,09,19,05,11,7.40
2007,09,19,05,12,7.40
2007,09,19,05,13,7.40
2007,09,19,05,14,7.30
2007,09,19,05,15,7.30
2007,09,19,05,16,7.30
2007,09,19,05,17,7.30
2007,09,19,05,18,7.30
2007,09,19,05,19,7.30
2007,09,19,05,20,7.20
2007,09,19,05,21,7.20
2007,09,19,05,22,7.20
2007,09,19,05,23,7.20
2007,09,19,05,24,7.10
2007,09,19,05,25,7.10
2007,09,19,05,26,7.00
2007,09,19,05,27,7.00
2007,09,19,05,28,6.90
2007,09,19,05,29,6.90
2007,09,19,05,30,6.90
2007,09,19,05,31,6.80
2007,09,19,05,32,6.80
2007,09,19,05,33,6.80
2007,09,19,05,34,6.80
2007,09,19,05,35,6.70
2007,09,19,05,36,6.70
2007,09,19,05,37,6.70
2007,09,19,05,38,6.70
2007,09,19,05,39,6.70
2007,09,19,05,40,6.60
2007,09,19,05,41,6.60
2007,09,19,05,42,6.60
2007,09,19,05,43,6.70
2007,09,19,05,44,6.70
2007,09,19,05,45,6.70
2007,09,19,05,46,6.70
2007,09,19,05,47,6.70
2007,09,19,05,48,6.70
2007,09,19,05,49,6.70
2007,09,19,05,50,6.70
2007,09,19,05,51,6.70
2007,09,19,05,52,6.70
2007,09,19,05,53,6.70
2007,09,19,05,54,6.70
2007,09,19,05,55,6.60
2007,09,19,05,56,6.60
2007,09,19,05,57,6.60
2007,09,19,05,58,6.60
2007,09,19,05,59,6.60
2007,09,19,06,00,6.60
2007,09,19,06,01,6.60
2007,09,19,06,02,6.60
2007,09,19,06,03,6.60
2007,09,19,06,04,6.50
2007,09,19,06,05,6.40
2007,09,19,06,06,6.40
2007,09,19,06,07,6.40
2007,09,19,06,08,6.40
2007,09,19,06,09,6.40
2007,09,19,06,10,6.40
2007,09,19,06,11,6.40
2007,09,19,06,12,6.40
2007,09,19,06,13,6.40
2007,09,19,06,14,6.40
2007,09,19,06,15,6.40
2007,09,19,06,16,6.40
2007,09,19,06,17,6.30
2007,09,19,06,18,6.30
2007,09,19,06,19,6.30
2007,09,19,06,20,6.30
2007,09,19,06,21,6.30
2007,09,19,06,22,6.20
2007,09,19,06,23,6.20
2007,09,19,06,24,6.20
2007,09,19,06,25,6.20
2007,09,19,06,26,6.30
2007,09,19,06,27,6.30
2007,09,19,06,28,6.20
2007,09,19,06,29,6.20
2007,09,19,06,30,6.20
2007,09,19,06,31,6.30
2007,09,19,06,32,6.30
2007,09,19,06,33,6.30
2007,09,19,06,34,6.30
2007,09,19,06,35,6.30
2007,09,19,06,36,6.20
2007,09,19,06,37,6.20
2007,09,19,06,38,6.20
2007,09,19,06,39,6.20
2007,09,19,06,40,6.20
2007,09,19,06,41,6.10
2007,09,19,06,42,6.10
2007,09,19,06,43,6.00
2007,09,19,06,44,6.00
2007,09,19,06,45,6.00
2007,09,19,06,46,6.00
2007,09,19,06,47,5.90
2007,09,19,06,48,5.90
2007,09,19,06,49,5.80
2007,09,19,06,50,5.80
2007,09,19,06,51,5.80
2007,09,19,06,52,5.70
2007,09,19,06,53,5.70
2007,09,19,06,54,5.70
2007,09,19,06,55,5.70
2007,09,19,06,56,5.70
2007,09,19,06,57,5.70
2007,09,19,06,58,5.70
2007,09,19,06,59,5.70
2007,09,19,07,00,5.70
2007,09,19,07,01,5.70
2007,09,19,07,02,5.70
2007,09,19,07,03,5.70
2007,09,19,07,04,5.70
2007,09,19,07,05,5.70
2007,09,19,07,06,5.90
2007,09,19,07,07,5.90
2007,09,19,07,08,5.90
2007,09,19,07,09,5.90
2007,09,19,07,10,6.00
2007,09,19,07,11,6.00
2007,09,19,07,12,6.00
2007,09,19,07,13,6.00
2007,09,19,07,14,6.00
2007,09,19,07,15,6.00
2007,09,19,07,16,6.00
2007,09,19,07,17,6.10
2007,09,19,07,18,6.10
2007,09,19,07,19,6.10
2007,09,19,07,20,6.10
2007,09,19,07,21,6.10
2007,09,19,07,22,6.10
2007,09,19,07,23,6.00
2007,09,19,07,24,6.00
2007,09,19,07,25,6.00
2007,09,19,07,26,6.00
2007,09,19,07,27,6.00
2007,09,19,07,28,6.00
2007,09,19,07,29,6.10
2007,09,19,07,30,6.10
2007,09,19,07,31,6.10
2007,09,19,07,32,6.20
2007,09,19,07,33,6.20
2007,09,19,07,34,6.20
2007,09,19,07,35,6.20
2007,09,19,07,36,6.20
2007,09,19,07,37,6.20
2007,09,19,07,38,6.20
2007,09,19,07,39,6.20
2007,09,19,07,40,6.20
2007,09,19,07,41,6.20
2007,09,19,07,42,6.20
2007,09,19,07,43,6.20
2007,09,19,07,44,6.40
2007,09,19,07,45,6.70
2007,09,19,07,46,6.80
2007,09,19,07,47,6.90
2007,09,19,07,48,6.90
2007,09,19,07,49,7.00
2007,09,19,07,50,7.00
2007,09,19,07,51,7.10
2007,09,19,07,52,7.20
2007,09,19,07,53,7.30
2007,09,19,07,54,7.30
2007,09,19,07,55,7.30
2007,09,19,07,56,7.30
2007,09,19,07,57,7.30
2007,09,19,07,58,7.40
2007,09,19,07,59,7.40
2007,09,19,08,00,7.50
2007,09,19,08,01,7.50
2007,09,19,08,02,7.60
2007,09,19,08,03,7.60
2007,09,19,08,04,7.70
2007,09,19,08,05,7.80
2007,09,19,08,06,7.80
2007,09,19,08,07,7.90
2007,09,19,08,08,8.00
2007,09,19,08,09,8.10
2007,09,19,08,10,8.10
2007,09,19,08,11,8.20
2007,09,19,08,12,8.30
2007,09,19,08,13,8.40
2007,09,19,08,14,8.60
2007,09,19,08,15,8.70
2007,09,19,08,16,8.90
2007,09,19,08,17,9.10
2007,09,19,08,18,9.20
2007,09,19,08,19,9.40
2007,09,19,08,20,9.50
2007,09,19,08,21,9.60
2007,09,19,08,22,9.70
2007,09,19,08,23,9.80
2007,09,19,08,24,9.90
2007,09,19,08,25,10.10
2007,09,19,08,26,10.20
2007,09,19,08,27,10.40
2007,09,19,08,28,10.50
2007,09,19,08,29,10.60
2007,09,19,08,30,10.70
2007,09,19,08,31,10.80
2007,09,19,08,32,10.90
2007,09,19,08,33,11.00
2007,09,19,08,34,11.10
2007,09,19,08,35,11.10
2007,09,19,08,36,11.20
2007,09,19,08,37,11.20
2007,09,19,08,38,11.30
2007,09,19,08,39,11.40
2007,09,19,08,40,11.40
2007,09,19,08,41,11.60
2007,09,19,08,42,11.60
2007,09,19,08,43,11.70
2007,09,19,08,44,11.80
2007,09,19,08,45,11.80
2007,09,19,08,46,11.80
2007,09,19,08,47,11.90
2007,09,19,08,48,12.00
2007,09,19,08,49,12.10
2007,09,19,08,50,12.10
2007,09,19,08,51,12.20
2007,09,19,08,52,12.10
2007,09,19,08,53,12.10
2007,09,19,08,54,12.00
2007,09,19,08,55,11.90
2007,09,19,08,56,11.90
2007,09,19,08,57,11.90
2007,09,19,08,58,11.90
2007,09,19,08,59,11.90
2007,09,19,09,00,11.90
2007,09,19,09,01,12.00
2007,09,19,09,02,12.00
2007,09,19,09,03,12.10
2007,09,19,09,04,12.20
2007,09,19,09,05,12.30
2007,09,19,09,06,12.30
2007,09,19,09,07,12.30
2007,09,19,09,08,12.30
2007,09,19,09,09,12.30
2007,09,19,09,10,12.40
2007,09,19,09,11,12.40
2007,09,19,09,12,12.50
2007,09,19,09,13,12.50
2007,09,19,09,14,12.60
2007,09,19,09,15,12.70
2007,09,19,09,16,12.80
2007,09,19,09,17,12.80
2007,09,19,09,18,12.90
2007,09,19,09,19,12.90
2007,09,19,09,20,12.90
2007,09,19,09,21,12.80
2007,09,19,09,22,12.80
2007,09,19,09,23,12.80
2007,09,19,09,24,12.80
2007,09,19,09,25,12.80
2007,09,19,09,26,12.90
2007,09,19,09,27,12.90
2007,09,19,09,28,13.00
2007,09,19,09,29,13.00
2007,09,19,09,30,13.00
2007,09,19,09,31,13.10
2007,09,19,09,32,13.10
2007,09,19,09,33,13.20
2007,09,19,09,34,13.30
2007,09,19,09,35,13.30
2007,09,19,09,36,13.30
2007,09,19,09,37,13.50
2007,09,19,09,38,13.60
2007,09,19,09,39,13.70
2007,09,19,09,40,13.70
2007,09,19,09,41,13.70
2007,09,19,09,42,13.70
2007,09,19,09,43,13.70
2007,09,19,09,44,13.70
2007,09,19,09,45,13.70
2007,09,19,09,46,13.70
2007,09,19,09,47,13.70
2007,09,19,09,48,13.70
2007,09,19,09,49,13.70
2007,09,19,09,50,13.70
2007,09,19,09,51,13.70
2007,09,19,09,52,13.70
2007,09,19,09,53,13.80
2007,09,19,09,54,13.90
2007,09,19,09,55,14.00
2007,09,19,09,56,14.20
2007,09,19,09,57,14.20
2007,09,19,09,58,14.30
2007,09,19,09,59,14.40
2007,09,19,10,00,14.30
2007,09,19,10,01,14.20
2007,09,19,10,02,14.20
2007,09,19,10,03,14.20
2007,09,19,10,04,14.10
2007,09,19,10,05,14.10
2007,09,19,10,06,14.00
2007,09,19,10,07,14.00
2007,09,19,10,08,14.00
2007,09,19,10,09,14.10
2007,09,19,10,10,14.20
2007,09,19,10,11,14.30
2007,09,19,10,12,14.40
2007,09,19,10,13,14.50
2007,09,19,10,14,14.60
2007,09,19,10,15,14.70
2007,09,19,10,16,14.80
2007,09,19,10,17,14.80
2007,09,19,10,18,14.90
2007,09,19,10,19,14.90
2007,09,19,10,20,14.70
2007,09,19,10,21,14.60
2007,09,19,10,22,14.50
2007,09,19,10,23,14.50
2007,09,19,10,24,14.40
2007,09,19,10,25,14.50
2007,09,19,10,26,14.50
2007,09,19,10,27,14.60
2007,09,19,10,28,14.60
2007,09,19,10,29,14.60
2007,09,19,10,30,14.50
2007,09,19,10,31,14.60
2007,09,19,10,32,14.60
2007,09,19,10,33,14.70
2007,09,19,10,34,14.80
2007,09,19,10,35,14.90
2007,09,19,10,36,15.00
2007,09,19,10,37,15.00
2007,09,19,10,38,15.00
2007,09,19,10,39,14.90
2007,09,19,10,40,15.00
2007,09,19,10,41,15.00
2007,09,19,10,42,15.00
2007,09,19,10,43,15.00
2007,09,19,10,44,15.00
2007,09,19,10,45,15.10
2007,09,19,10,46,15.10
2007,09,19,10,47,15.20
2007,09,19,10,48,15.30
2007,09,19,10,49,15.30
2007,09,19,10,50,15.30
2007,09,19,10,51,15.30
2007,09,19,10,52,15.30
2007,09,19,10,53,15.30
2007,09,19,10,54,15.30
2007,09,19,10,55,15.30
2007,09,19,10,56,15.40
2007,09,19,10,57,15.50
2007,09,19,10,58,15.50
2007,09,19,10,59,15.60
2007,09,19,11,00,15.60
2007,09,19,11,01,15.50
2007,09,19,11,02,15.50
2007,09,19,11,03,15.60
2007,09,19,11,04,15.60
2007,09,19,11,05,15.70
2007,09,19,11,06,15.90
2007,09,19,11,07,16.10
2007,09,19,11,08,16.20
2007,09,19,11,09,16.40
2007,09,19,11,10,16.50
2007,09,19,11,11,16.60
2007,09,19,11,12,16.70
2007,09,19,11,13,16.80
2007,09,19,11,14,16.90
2007,09,19,11,15,16.80
2007,09,19,11,16,16.70
2007,09,19,11,17,16.50
2007,09,19,11,18,16.40
2007,09,19,11,19,16.30
2007,09,19,11,20,16.30
2007,09,19,11,21,16.20
2007,09,19,11,22,16.20
2007,09,19,11,23,16.20
2007,09,19,11,24,16.20
2007,09,19,11,25,16.10
2007,09,19,11,26,16.10
2007,09,19,11,27,16.10
2007,09,19,11,28,16.10
2007,09,19,11,29,16.20
2007,09,19,11,30,16.20
2007,09,19,11,31,16.20
2007,09,19,11,32,16.10
2007,09,19,11,33,16.20
2007,09,19,11,34,16.20
2007,09,19,11,35,16.30
2007,09,19,11,36,16.30
2007,09,19,11,37,16.30
2007,09,19,11,38,16.30
2007,09,19,11,39,16.30
2007,09,19,11,40,16.30
2007,09,19,11,41,16.30
2007,09,19,11,42,16.30
2007,09,19,11,43,16.30
2007,09,19,11,44,16.30
2007,09,19,11,45,16.40
2007,09,19,11,46,16.50
2007,09,19,11,47,16.60
2007,09,19,11,48,16.60
2007,09,19,11,49,16.70
2007,09,19,11,50,16.80
2007,09,19,11,51,16.80
2007,09,19,11,52,16.90
2007,09,19,11,53,16.90
2007,09,19,11,54,16.90
2007,09,19,11,55,17.00
2007,09,19,11,56,17.10
2007,09,19,11,57,17.10
2007,09,19,11,58,17.10
2007,09,19,11,59,17.20
2007,09,19,12,00,17.30
2007,09,19,12,01,17.40
2007,09,19,12,02,17.60
2007,09,19,12,03,17.70
2007,09,19,12,04,17.80
2007,09,19,12,05,17.80
2007,09,19,12,06,17.70
2007,09,19,12,07,17.70
2007,09,19,12,08,17.70
2007,09,19,12,09,17.70
2007,09,19,12,10,17.70
2007,09,19,12,11,17.70
2007,09,19,12,12,17.70
2007,09,19,12,13,17.70
2007,09,19,12,14,17.70
2007,09,19,12,15,17.90
2007,09,19,12,16,17.90
2007,09,19,12,17,18.00
2007,09,19,12,18,18.10
2007,09,19,12,19,18.00
2007,09,19,12,20,17.90
2007,09,19,12,21,17.80
2007,09,19,12,22,17.70
2007,09,19,12,23,17.60
2007,09,19,12,24,17.60
2007,09,19,12,25,17.60
2007,09,19,12,26,17.60
2007,09,19,12,27,17.50
2007,09,19,12,28,17.60
2007,09,19,12,29,17.80
2007,09,19,12,30,17.90
2007,09,19,12,31,17.90
2007,09,19,12,32,17.90
2007,09,19,12,33,17.90
2007,09,19,12,34,17.90
2007,09,19,12,35,17.90
2007,09,19,12,36,17.90
2007,09,19,12,37,17.90
2007,09,19,12,38,18.00
2007,09,19,12,39,18.10
2007,09,19,12,40,18.10
2007,09,19,12,41,18.20
2007,09,19,12,42,18.20
2007,09,19,12,43,18.20
2007,09,19,12,44,18.30
2007,09,19,12,45,18.30
2007,09,19,12,46,18.30
2007,09,19,12,47,18.30
2007,09,19,12,48,18.30
2007,09,19,12,49,18.20
2007,09,19,12,50,18.20
2007,09,19,12,51,18.20
2007,09,19,12,52,18.20
2007,09,19,12,53,18.30
2007,09,19,12,54,18.30
2007,09,19,12,55,18.20
2007,09,19,12,56,18.00
2007,09,19,12,57,17.90
2007,09,19,12,58,17.80
2007,09,19,12,59,17.70
2007,09,19,13,00,17.70
2007,09,19,13,01,17.60
2007,09,19,13,02,17.60
2007,09,19,13,03,17.60
2007,09,19,13,04,17.60
2007,09,19,13,05,17.60
2007,09,19,13,06,17.50
2007,09,19,13,07,17.50
2007,09,19,13,08,17.30
2007,09,19,13,09,17.30
2007,09,19,13,10,17.30
2007,09,19,13,11,17.40
2007,09,19,13,12,17.40
2007,09,19,13,13,17.40
2007,09,19,13,14,17.30
2007,09,19,13,15,17.20
2007,09,19,13,16,17.10
2007,09,19,13,17,17.10
2007,09,19,13,18,17.00
2007,09,19,13,19,17.00
2007,09,19,13,20,17.00
2007,09,19,13,21,17.00
2007,09,19,13,22,17.00
2007,09,19,13,23,16.90
2007,09,19,13,24,17.00
2007,09,19,13,25,17.00
2007,09,19,13,26,16.90
2007,09,19,13,27,16.90
2007,09,19,13,28,16.80
2007,09,19,13,29,16.80
2007,09,19,13,30,16.90
2007,09,19,13,31,16.90
2007,09,19,13,32,16.90
2007,09,19,13,33,16.90
2007,09,19,13,34,16.80
2007,09,19,13,35,16.90
2007,09,19,13,36,17.00
2007,09,19,13,37,17.10
2007,09,19,13,38,17.00
2007,09,19,13,39,17.00
2007,09,19,13,40,17.10
2007,09,19,13,41,17.20
2007,09,19,13,42,17.20
2007,09,19,13,43,17.20
2007,09,19,13,44,17.20
2007,09,19,13,45,17.30
2007,09,19,13,46,17.30
2007,09,19,13,47,17.30
2007,09,19,13,48,17.30
2007,09,19,13,49,17.30
2007,09,19,13,50,17.30
2007,09,19,13,51,17.30
2007,09,19,13,52,17.20
2007,09,19,13,53,17.30
2007,09,19,13,54,17.30
2007,09,19,13,55,17.30
2007,09,19,13,56,17.30
2007,09,19,13,57,17.30
2007,09,19,13,58,17.30
2007,09,19,13,59,17.20
2007,09,19,14,00,17.30
2007,09,19,14,01,17.30
2007,09,19,14,02,17.40
2007,09,19,14,03,17.50
2007,09,19,14,04,17.60
2007,09,19,14,05,17.70
2007,09,19,14,06,17.80
2007,09,19,14,07,17.90
2007,09,19,14,08,17.80
2007,09,19,14,09,17.70
2007,09,19,14,10,17.60
2007,09,19,14,11,17.70
2007,09,19,14,12,17.80
2007,09,19,14,13,17.80
2007,09,19,14,14,17.80
2007,09,19,14,15,17.80
2007,09,19,14,16,17.90
2007,09,19,14,17,17.90
2007,09,19,14,18,17.90
2007,09,19,14,19,17.80
2007,09,19,14,20,17.80
2007,09,19,14,21,17.80
2007,09,19,14,22,17.80
2007,09,19,14,23,17.90
2007,09,19,14,24,18.10
2007,09,19,14,25,18.20
2007,09,19,14,26,18.20
2007,09,19,14,27,18.20
2007,09,19,14,28,18.30
2007,09,19,14,29,18.30
2007,09,19,14,30,18.20
2007,09,19,14,31,18.20
2007,09,19,14,32,18.30
2007,09,19,14,33,18.30
2007,09,19,14,34,18.40
2007,09,19,14,35,18.60
2007,09,19,14,36,18.60
2007,09,19,14,37,18.60
2007,09,19,14,38,18.50
2007,09,19,14,39,18.50
2007,09,19,14,40,18.50
2007,09,19,14,41,18.50
2007,09,19,14,42,18.60
2007,09,19,14,43,18.50
2007,09,19,14,44,18.50
2007,09,19,14,45,18.50
2007,09,19,14,46,18.50
2007,09,19,14,47,18.40
2007,09,19,14,48,18.30
2007,09,19,14,49,18.30
2007,09,19,14,50,18.30
2007,09,19,14,51,18.30
2007,09,19,14,52,18.40
2007,09,19,14,53,18.40
2007,09,19,14,54,18.50
2007,09,19,14,55,18.50
2007,09,19,14,56,18.60
2007,09,19,14,57,18.80
2007,09,19,14,58,18.90
2007,09,19,14,59,18.90
2007,09,19,15,00,18.90
2007,09,19,15,01,18.90
2007,09,19,15,02,18.90
2007,09,19,15,03,18.90
2007,09,19,15,04,18.80
2007,09,19,15,05,18.90
2007,09,19,15,06,18.80
2007,09,19,15,07,18.90
2007,09,19,15,08,18.90
2007,09,19,15,09,18.90
2007,09,19,15,10,18.90
2007,09,19,15,11,18.90
2007,09,19,15,12,18.90
2007,09,19,15,13,19.00
2007,09,19,15,14,19.10
2007,09,19,15,15,18.90
2007,09,19,15,16,18.90
2007,09,19,15,17,18.80
2007,09,19,15,18,18.70
2007,09,19,15,19,18.60
2007,09,19,15,20,18.70
2007,09,19,15,21,18.70
2007,09,19,15,22,18.60
2007,09,19,15,23,18.60
2007,09,19,15,24,18.60
2007,09,19,15,25,18.50
2007,09,19,15,26,18.50
2007,09,19,15,27,18.50
2007,09,19,15,28,18.40
2007,09,19,15,29,18.40
2007,09,19,15,30,18.40
2007,09,19,15,31,18.50
2007,09,19,15,32,18.50
2007,09,19,15,33,18.40
2007,09,19,15,34,18.40
2007,09,19,15,35,18.50
2007,09,19,15,36,18.50
2007,09,19,15,37,18.50
2007,09,19,15,38,18.60
2007,09,19,15,39,18.70
2007,09,19,15,40,18.80
2007,09,19,15,41,18.90
2007,09,19,15,42,18.90
2007,09,19,15,43,19.00
2007,09,19,15,44,18.90
2007,09,19,15,45,18.90
2007,09,19,15,46,18.90
2007,09,19,15,47,18.90
2007,09,19,15,48,18.90
2007,09,19,15,49,18.90
2007,09,19,15,50,18.90
2007,09,19,15,51,18.90
2007,09,19,15,52,19.00
2007,09,19,15,53,19.00
2007,09,19,15,54,18.90
2007,09,19,15,55,18.80
2007,09,19,15,56,18.70
2007,09,19,15,57,18.70
2007,09,19,15,58,18.70
2007,09,19,15,59,18.60
2007,09,19,16,00,18.50
2007,09,19,16,01,18.50
2007,09,19,16,02,18.50
2007,09,19,16,03,18.60
2007,09,19,16,04,18.60
2007,09,19,16,05,18.70
2007,09,19,16,06,18.80
2007,09,19,16,07,18.70
2007,09,19,16,08,18.80
2007,09,19,16,09,18.80
2007,09,19,16,10,18.90
2007,09,19,16,11,18.90
2007,09,19,16,12,18.90
2007,09,19,16,13,18.80
2007,09,19,16,14,18.70
2007,09,19,16,15,18.70
2007,09,19,16,16,18.80
2007,09,19,16,17,18.80
2007,09,19,16,18,18.80
2007,09,19,16,19,18.90
2007,09,19,16,20,19.00
2007,09,19,16,21,19.00
2007,09,19,16,22,19.10
2007,09,19,16,23,19.10
2007,09,19,16,24,19.20
2007,09,19,16,25,19.20
2007,09,19,16,26,19.20
2007,09,19,16,27,19.10
2007,09,19,16,28,19.10
2007,09,19,16,29,19.10
2007,09,19,16,30,19.10
2007,09,19,16,31,19.10
2007,09,19,16,32,19.10
2007,09,19,16,33,19.10
2007,09,19,16,34,19.10
2007,09,19,16,35,19.10
2007,09,19,16,36,19.10
2007,09,19,16,37,19.10
2007,09,19,16,38,19.10
2007,09,19,16,39,19.10
2007,09,19,16,40,19.10
2007,09,19,16,41,19.10
2007,09,19,16,42,19.10
2007,09,19,16,43,19.10
2007,09,19,16,44,19.00
2007,09,19,16,45,18.90
2007,09,19,16,46,18.90
2007,09,19,16,47,18.70
2007,09,19,16,48,18.60
2007,09,19,16,49,18.50
2007,09,19,16,50,18.20
2007,09,19,16,51,18.10
2007,09,19,16,52,17.90
2007,09,19,16,53,17.90
2007,09,19,16,54,17.90
2007,09,19,16,55,17.90
2007,09,19,16,56,18.10
2007,09,19,16,57,18.10
2007,09,19,16,58,18.20
2007,09,19,16,59,18.20
2007,09,19,17,00,18.20
2007,09,19,17,01,18.20
2007,09,19,17,02,18.20
2007,09,19,17,03,18.20
2007,09,19,17,04,18.20
2007,09,19,17,05,18.30
2007,09,19,17,06,18.30
2007,09,19,17,07,18.40
2007,09,19,17,08,18.40
2007,09,19,17,09,18.40
2007,09,19,17,10,18.30
2007,09,19,17,11,18.30
2007,09,19,17,12,18.40
2007,09,19,17,13,18.40
2007,09,19,17,14,18.40
2007,09,19,17,15,18.30
2007,09,19,17,16,18.30
2007,09,19,17,17,18.30
2007,09,19,17,18,18.40
2007,09,19,17,19,18.40
2007,09,19,17,20,18.50
2007,09,19,17,21,18.60
2007,09,19,17,22,18.60
2007,09,19,17,23,18.70
2007,09,19,17,24,18.80
2007,09,19,17,25,18.80
2007,09,19,17,26,18.80
2007,09,19,17,27,18.80
2007,09,19,17,28,18.70
2007,09,19,17,29,18.70
2007,09,19,17,30,18.60
2007,09,19,17,31,18.60
2007,09,19,17,32,18.60
2007,09,19,17,33,18.60
2007,09,19,17,34,18.60
2007,09,19,17,35,18.60